Yankton, SD

10:43 PM CST on February 21, 2017 (GMT -0600)
Gurney Municipal

Weather History for KYKN - October, 2011

Change the Weather History Date:

Thursday, October 6, 2011

  Actual Average Record
Temperature  
Mean Temperature 70 °F -  
Max Temperature 78 °F 66 °F 94 °F (1963)
Min Temperature 62 °F 40 °F 25 °F (1976)
Cooling Degree Days 5    
Growing Degree Days 20 (Base 50)    
Moisture  
Dew Point 44 °F    
Average Humidity 42    
Maximum Humidity 68    
Minimum Humidity 35    
Precipitation  
Precipitation 0.00 in - - ()
Sea Level Pressure  
Sea Level Pressure 29.83 in    
Wind  
Wind Speed 20 mph (SE)    
Max Wind Speed 36 mph    
Max Gust Speed 44 mph    
Visibility 10 miles    
Events      
Averages and records for this station are not official NWS values.
T = Trace of Precipitation, MM = Missing Value Source: NWS Daily Summary

Daily Weather History Graph

Daily Weather History Graph

Search for Another Location

Airport or City:

Trip Planner

Search our weather history database for the weather conditions in past years. The results will help you decide how hot, cold, wet, or windy it might be!

Date:

Astronomy

Oct. 06, 2011 Rise Set
Actual Time 7:32 AM CDT 7:02 PM CDT
Civil Twilight 7:03 AM CDT 7:30 PM CDT
Nautical Twilight 6:31 AM CDT 8:03 PM CDT
Astronomical Twilight 5:58 AM CDT 8:36 PM CDT
Moon 4:22 PM CDT (10/6) 2:14 AM CDT (10/6)
Length of Visible Light 12h 26m
Length of Day
11h 30m
Waxing Gibbous, 75% of the Moon is Illuminated
Oct 6
Waxing Gibbous
Oct 11
Full
Oct 19
Last Quarter
Oct 26
New
Nov 2
First Quarter

Hourly Weather History & Observations

Time (CDT) Temp. Dew Point Humidity Pressure Visibility Wind Dir Wind Speed Gust Speed Precip Events Conditions
12:15 AM 66.2 °F 37.4 °F 35% 29.90 in 10.0 mi SSE 16.1 mph 23.0 mph N/A   Clear
12:35 AM 64.4 °F 37.4 °F 37% 29.90 in 10.0 mi SE 16.1 mph 21.9 mph N/A   Clear
1:15 AM 64.4 °F 37.4 °F 37% 29.90 in 10.0 mi SSE 17.3 mph 23.0 mph N/A   Clear
1:35 AM 66.2 °F 37.4 °F 35% 29.90 in 10.0 mi SSE 19.6 mph - N/A   Clear
1:55 AM 64.4 °F 37.4 °F 37% 29.91 in 10.0 mi SSE 17.3 mph 25.3 mph N/A   Clear
2:15 AM 64.4 °F 37.4 °F 37% 29.91 in 10.0 mi SSE 17.3 mph - N/A   Clear
2:35 AM 64.4 °F 37.4 °F 37% 29.91 in 10.0 mi SSE 16.1 mph 23.0 mph N/A   Clear
2:55 AM 64.4 °F 37.4 °F 37% 29.91 in 10.0 mi SSE 16.1 mph - N/A   Clear
3:15 AM 62.6 °F 37.4 °F 39% 29.90 in 10.0 mi SSE 13.8 mph - N/A   Clear
3:35 AM 62.6 °F 37.4 °F 39% 29.90 in 10.0 mi SSE 13.8 mph 18.4 mph N/A   Clear
3:55 AM 62.6 °F 37.4 °F 39% 29.90 in 10.0 mi SSE 13.8 mph 18.4 mph N/A   Clear
4:15 AM 62.6 °F 37.4 °F 39% 29.90 in 10.0 mi SSE 15.0 mph 19.6 mph N/A   Clear
4:35 AM 62.6 °F 37.4 °F 39% 29.90 in 10.0 mi SSE 16.1 mph 23.0 mph N/A   Clear
4:55 AM 62.6 °F 39.2 °F 42% 29.90 in 10.0 mi SSE 16.1 mph - N/A   Clear
5:15 AM 62.6 °F 39.2 °F 42% 29.90 in 10.0 mi SSE 18.4 mph - N/A   Scattered Clouds
5:35 AM 62.6 °F 39.2 °F 42% 29.90 in 10.0 mi SSE 16.1 mph - N/A   Overcast
5:55 AM 62.6 °F 39.2 °F 42% 29.89 in 10.0 mi SSE 18.4 mph 23.0 mph N/A   Overcast
6:15 AM 62.6 °F 39.2 °F 42% 29.89 in 10.0 mi SSE 16.1 mph - N/A   Mostly Cloudy
6:35 AM 62.6 °F 39.2 °F 42% 29.89 in 10.0 mi SE 15.0 mph - N/A   Scattered Clouds
6:55 AM 62.6 °F 39.2 °F 42% 29.88 in 10.0 mi SE 16.1 mph 21.9 mph N/A   Partly Cloudy
7:15 AM 62.6 °F 39.2 °F 42% 29.88 in 10.0 mi SE 13.8 mph - N/A   Clear
7:35 AM 62.6 °F 39.2 °F 42% 29.88 in 10.0 mi SE 17.3 mph 21.9 mph N/A   Clear
7:55 AM 62.6 °F 39.2 °F 42% 29.88 in 10.0 mi SE 16.1 mph 20.7 mph N/A   Clear
8:15 AM 62.6 °F 39.2 °F 42% 29.88 in 10.0 mi SE 17.3 mph 23.0 mph N/A   Clear
8:55 AM 62.6 °F 41.0 °F 45% 29.88 in 10.0 mi SE 16.1 mph 20.7 mph N/A   Clear
9:15 AM 64.4 °F 41.0 °F 42% 29.88 in 10.0 mi SE 18.4 mph 21.9 mph N/A   Clear
9:35 AM 66.2 °F 41.0 °F 40% 29.88 in 10.0 mi SE 18.4 mph 26.5 mph N/A   Clear
9:55 AM 66.2 °F 42.8 °F 43% 29.88 in 10.0 mi SSE 24.2 mph 31.1 mph N/A   Clear
10:55 AM 69.8 °F 42.8 °F 38% 29.86 in 10.0 mi SSE 24.2 mph 34.5 mph N/A   Scattered Clouds
11:15 AM 69.8 °F 44.6 °F 40% 29.87 in 10.0 mi SSE 25.3 mph 31.1 mph N/A   Clear
11:35 AM 71.6 °F 46.4 °F 41% 29.86 in 10.0 mi SSE 29.9 mph 38.0 mph N/A   Scattered Clouds
11:55 AM 71.6 °F 46.4 °F 41% 29.85 in 10.0 mi SSE 28.8 mph 34.5 mph N/A   Mostly Cloudy
12:15 PM 71.6 °F 46.4 °F 41% 29.86 in 10.0 mi SSE 21.9 mph 34.5 mph N/A   Mostly Cloudy
12:35 PM 69.8 °F 46.4 °F 43% 29.85 in 10.0 mi SSE 28.8 mph 38.0 mph N/A   Mostly Cloudy
12:55 PM 66.2 °F 48.2 °F 52% 29.85 in 10.0 mi SSE 25.3 mph 36.8 mph N/A   Overcast
1:15 PM 66.2 °F 50.0 °F 56% 29.85 in 10.0 mi SSE 21.9 mph 34.5 mph N/A   Mostly Cloudy
1:35 PM 66.2 °F 53.6 °F 64% 29.83 in 10.0 mi SE 23.0 mph 36.8 mph N/A   Overcast
1:55 PM 64.4 °F 53.6 °F 68% 29.83 in 10.0 mi SE 25.3 mph 32.2 mph N/A   Overcast
2:15 PM 64.4 °F 51.8 °F 64% 29.82 in 10.0 mi ESE 17.3 mph 28.8 mph N/A   Overcast
2:35 PM 66.2 °F 53.6 °F 64% 29.81 in 10.0 mi SE 23.0 mph 29.9 mph N/A   Overcast
3:35 PM 71.6 °F 51.8 °F 50% 29.77 in 10.0 mi SE 29.9 mph 36.8 mph N/A   Partly Cloudy
3:55 PM 73.4 °F 51.8 °F 47% 29.76 in 10.0 mi SE 29.9 mph 41.4 mph N/A   Clear
4:15 PM 75.2 °F 51.8 °F 44% 29.75 in 10.0 mi SE 28.8 mph 39.1 mph N/A   Clear
4:35 PM 77.0 °F 51.8 °F 41% 29.74 in 10.0 mi SE 31.1 mph 39.1 mph N/A   Clear
4:55 PM 78.8 °F 51.8 °F 39% 29.73 in 10.0 mi SE 29.9 mph 39.1 mph N/A   Clear
5:15 PM 78.8 °F 51.8 °F 39% 29.72 in 10.0 mi SE 29.9 mph 41.4 mph N/A   Clear
5:35 PM 78.8 °F 51.8 °F 39% 29.72 in 10.0 mi SE 29.9 mph 36.8 mph N/A   Clear
5:55 PM 78.8 °F 51.8 °F 39% 29.71 in 10.0 mi SE 34.5 mph 41.4 mph N/A   Clear
6:15 PM 78.8 °F 51.8 °F 39% 29.71 in 10.0 mi SE 35.7 mph 43.7 mph N/A   Clear
6:35 PM 78.8 °F 50.0 °F 36% 29.72 in 10.0 mi SE 32.2 mph 42.6 mph N/A   Clear
6:55 PM 77.0 °F 50.0 °F 39% 29.72 in 10.0 mi SE 32.2 mph 42.6 mph N/A   Clear
7:15 PM 77.0 °F 48.2 °F 36% 29.73 in 10.0 mi SSE 29.9 mph 41.4 mph N/A   Clear
7:35 PM 75.2 °F 48.2 °F 38% 29.73 in 10.0 mi SE 26.5 mph 40.3 mph N/A   Clear
7:55 PM 75.2 °F 48.2 °F 38% 29.74 in 10.0 mi SE 21.9 mph 32.2 mph N/A   Clear
8:15 PM 73.4 °F 48.2 °F 41% 29.74 in 10.0 mi SE 23.0 mph 32.2 mph N/A   Clear
8:35 PM 73.4 °F 46.4 °F 38% 29.74 in 10.0 mi SE 28.8 mph 35.7 mph N/A   Clear
8:55 PM 73.4 °F 46.4 °F 38% 29.75 in 10.0 mi SE 26.5 mph 36.8 mph N/A   Clear
9:15 PM 73.4 °F 44.6 °F 36% 29.74 in 10.0 mi SE 26.5 mph 38.0 mph N/A   Clear
9:35 PM 73.4 °F 44.6 °F 36% 29.74 in 10.0 mi SE 24.2 mph 31.1 mph N/A   Clear
9:55 PM 71.6 °F 44.6 °F 38% 29.74 in 10.0 mi SE 23.0 mph 32.2 mph N/A   Clear
10:15 PM 71.6 °F 44.6 °F 38% 29.74 in 10.0 mi SE 27.6 mph 35.7 mph N/A   Clear
10:35 PM 71.6 °F 42.8 °F 35% 29.74 in 10.0 mi SE 24.2 mph 36.8 mph N/A   Clear
10:55 PM 71.6 °F 42.8 °F 35% 29.74 in 10.0 mi SE 27.6 mph 38.0 mph N/A   Clear
11:15 PM 71.6 °F 42.8 °F 35% 29.73 in 10.0 mi SE 27.6 mph 34.5 mph N/A   Clear
11:35 PM 71.6 °F 42.8 °F 35% 29.75 in 10.0 mi SSE 26.5 mph 35.7 mph N/A   Clear
11:55 PM 71.6 °F 42.8 °F 35% 29.75 in 10.0 mi SSE 24.2 mph 40.3 mph N/A   Clear